Terug naar catalogus

METEOR 2-5 DEB

ActiefPO
NORAD 45510·DEBRIS·🇷🇺 Russia

Gelanceerd Oct 31, 1979 vanaf Plesetsk Cosmodrome

Loading…

Volgende Passages (komende 24 uur)

TLE

VerouderendSource: Space-Track

Epoch: Sep 11, 2026, 07:40 UTC

1 45510U 79095CS  26254.31995968  .00002010  00000-0  86183-3 0  9996
2 45510  81.1874 115.8846 0013876 328.7782  31.2571 14.24479385454752

Volg METEOR 2-5 DEB in realtime met AllMySat

Download on the App Store